#timestamp,LO_Frequency,Hit,StdDev 
1662724815.2,286047000.4,N
1662724835.9,286047001.1,N
1662724855.7,286047001.1,N
1662724875.6,286047000.7,N
1662724895.4,286047000.7,N
1662724915.3,286047001.1,N
1662724935.1,286047000.4,N
1662724936.0,286047000.4,N
1662724955.8,286047001.0,N
1662724975.7,286047002.7,N
1662724995.5,286047000.1,N
1662725015.3,286047000.5,N
1662725035.2,286047000.4,N
1662725055.0,286047001.6,N
1662725055.9,286047001.6,N
1662725075.8,286047002.5,N
1662725095.6,286047002.1,N
1662725115.4,286047000.1,N
1662725135.3,286047000.1,N
1662725155.1,286046999.7,N
1662725175.8,286047000.1,N
1662725195.7,286046999.8,N
1662725215.5,286047000.2,N
1662725235.4,286047000.6,N
1662725255.2,286047001.1,N
1662725275.0,286047000.5,N
1662725275.9,286047000.5,N
1662725295.8,286047001.0,N
1662725315.6,286047000.6,N
1662725335.4,286047000.4,N
1662725355.3,286047000.3,N
1662725375.1,286046999.9,N
1662725395.9,286047002.8,Y
1662725415.7,286047000.4,P
1662725435.5,286047000.3,N
1662725455.4,286046999.9,N
1662725475.2,286046999.9,N
1662725495.1,286047000.9,N
1662725496.0,286047000.9,N
1662725515.8,286046999.7,N
1662725535.6,286047000.7,N
1662725555.5,286047000.3,N
1662725575.3,286046999.7,N
1662725595.2,286047002.8,Y
1662725615.9,286046999.9,P
1662725635.7,286046999.7,N
1662725655.6,286047000.0,N
1662725675.4,286047002.8,Y
1662725695.3,286047002.4,P
1662725715.1,286046999.8,N
1662725716.0,286046999.8,N
1662725735.8,286046999.9,N
1662725755.7,286047002.5,N
1662725775.5,286047002.3,N
1662725795.3,286047001.3,N
1662725815.2,286047004.1,Y
1662725835.0,286047002.2,P
1662725835.9,286047002.2,P
1662725855.8,286047000.2,N
1662725875.6,286046998.6,N
1662725895.4,286047001.0,N
1662725915.3,286047000.8,N
1662725935.1,286047001.0,N
1662725955.8,286046998.1,N
1662725975.7,286046998.4,N
1662725995.5,286046998.3,N
1662726015.4,286047000.8,N
1662726035.2,286046998.3,N
1662726055.0,286046998.6,N
1662726055.9,286046998.6,N
1662726075.8,286046998.9,N
1662726095.6,286046999.3,N
1662726115.5,286046998.3,N
1662726135.3,286046998.6,N
1662726155.1,286046999.1,N
1662726175.9,286046996.8,N
1662726195.7,286046996.5,N
1662726215.5,286046999.3,N
1662726235.4,286046999.5,N
1662726255.2,286046999.3,N
1662726275.1,286047001.0,N
1662726276.0,286047001.0,N
1662726295.8,286047000.6,N
1662726315.6,286047001.1,N
1662726335.5,286047000.0,N
1662726355.3,286047000.1,N
1662726375.1,286047001.0,N
1662726395.9,286046999.9,N
1662726415.7,286047001.0,N
1662726435.6,286047000.7,N
1662726455.4,286047001.0,N
1662726475.2,286047000.5,N
1662726495.1,286047000.7,N
1662726496.0,286047000.7,N
1662726515.8,286047000.9,N
1662726535.6,286047000.3,N
1662726555.5,286047000.4,N
1662726575.3,286047000.8,N
1662726595.2,286046998.6,N
1662726615.9,286046996.5,N
1662726635.7,286046997.6,N
1662726655.6,286046995.1,Y
1662726675.4,286046999.5,P
1662726695.2,286046999.4,P
1662726715.1,286047000.5,P
1662726716.0,286047000.5,N
1662726735.8,286047000.5,N
1662726755.7,286047000.9,N
1662726775.5,286046999.9,N
1662726795.3,286047000.2,N
1662726815.2,286047000.8,N
1662726835.0,286047000.2,N
1662726835.9,286047000.2,N
1662726855.8,286046999.8,N
1662726875.6,286047000.1,N
1662726895.4,286046999.8,N
1662726915.3,286047002.5,Y
1662726935.1,286047002.3,P
1662726955.9,286047000.3,N
1662726975.7,286047001.2,N
1662726995.5,286046999.4,N
1662727015.4,286046998.3,N
1662727035.2,286046998.6,N
1662727055.0,286047001.0,N
1662727055.9,286047001.0,N
1662727075.8,286047000.6,N
1662727095.6,286046999.0,N
1662727115.5,286046999.3,N
1662727135.3,286047001.0,N
1662727155.1,286047000.4,N
1662727175.9,286047001.1,N
1662727195.7,286046998.4,N
1662727215.5,286047001.0,N
1662727235.4,286046999.9,N
1662727255.2,286047002.7,N
1662727275.1,286047002.8,N
1662727276.0,286047002.8,N
1662727295.8,286046999.7,N
1662727315.6,286047000.1,N
1662727335.5,286047000.0,N
1662727355.3,286047001.9,N
1662727375.1,286047001.9,N
1662727395.9,286047000.3,N
1662727415.7,286046999.8,N
1662727435.6,286047000.5,N
1662727455.4,286046999.8,N
1662727475.2,286047002.8,N
1662727495.1,286047002.3,N
1662727496.0,286047002.3,N
1662727515.8,286046999.8,N
1662727535.6,286046999.8,N
1662727555.5,286047000.6,N
1662727575.3,286047000.4,N
1662727595.2,286047000.5,N
1662727615.9,286047000.5,N
1662727635.7,286047000.4,N
1662727655.6,286047002.3,N
1662727675.4,286047000.0,N
1662727695.3,286047002.6,N
1662727715.1,286047002.4,N
1662727716.0,286047002.4,N
1662727735.8,286047002.8,N
1662727755.7,286047002.0,N
1662727775.5,286047004.4,Y
1662727795.3,286047000.0,P
1662727815.2,286047000.1,N
1662727835.0,286047000.3,N
1662727835.9,286047000.3,N
1662727855.8,286047000.7,N
1662727875.6,286046998.8,Y
1662727895.4,286046999.5,P
1662727915.3,286046996.8,P
1662727935.1,286046999.1,N
1662727955.9,286046999.5,N
1662727975.7,286046997.0,N
1662727995.5,286046997.7,N
1662728015.4,286046997.2,N
1662728035.2,286046997.8,N
1662728055.0,286046997.9,N
1662728055.9,286046997.9,N
1662728075.8,286046999.2,N
1662728095.6,286046998.8,N
1662728115.5,286046998.5,N
1662728135.3,286046999.1,N
1662728155.1,286046997.0,N
1662728175.9,286046999.1,N
1662728195.7,286046999.5,N
1662728215.5,286046997.8,N
1662728235.4,286046997.5,N
1662728255.2,286046998.0,N
1662728275.1,286046997.1,N
1662728276.0,286046997.1,N
1662728295.8,286046997.6,N
1662728315.6,286046996.2,Y
1662728335.5,286046994.9,P
1662728355.3,286046995.1,N
1662728375.1,286046995.1,P
1662728395.9,286046995.3,Y
